Back to catalog

VEGA

AliveScienceSSO
NORAD 68430·PAYLOAD·🇫🇷 France

Launched Mar 30, 2026 from Vandenberg Space Force Base

Loading…

Next Passes (next 24 hours)

TLE

FreshSource: Space-Track

Epoch: Sep 14, 2026, 08:07 UTC

1 68430U 26067Q   26257.33850487  .00005408  00000-0  25303-3 0  9995
2 68430  97.4583 214.6970 0002404  71.5124 288.6372 15.20164450 25481

Track VEGA in real time with AllMySat

Download on the App Store